usa flag      colorado flag

Language: 

TigerDenWX History Data from Weather Underground


TigerDenWX Weather Station Historical Data
 
Daily Summary for August 17, 2017 Units:  English    Metric   Both
« Previous Day
Next Day »
Daily Weekly Monthly Yearly Custom
  Current: High: Low: Average:
Temperature: 61.5 °F 61.5 °F 57.4 °F 58.8 °F
Dew Point: 50.8 °F 51.0 °F 48.7 °F 49.7 °F
Humidity: 68 % 75 % 67 % 72 %
Wind Speed: 0.0 mph 4.0 mph 0.0 mph 0.3 mph
Wind Gust: 5.0 mph 7.0 mph - -
Wind:Calm - - SSE
Pressure: 30.01 in 30.03 in 29.99 in -
Precipitation: 0.00 in      
Historical Graphs
 
 
Tabular Data for August 17, 2017
Time Temperature Dew Point Pressure Wind Wind Speed Wind Gust Humidity Rainfall Rate (Hourly) solar
00:02 57.4 °F 48.8 °F 30.03 in Calm   1.0 mph 73 % 0.00 in 0 W/m2
00:07 57.6 °F 49.0 °F 30.03 in Calm   3.0 mph 73 % 0.00 in 0 W/m2
00:12 57.9 °F 48.9 °F 30.02 in Calm   3.0 mph 72 % 0.00 in 0 W/m2
00:17 58.2 °F 48.8 °F 30.02 in Calm   2.0 mph 71 % 0.00 in 0 W/m2
00:23 58.4 °F 48.7 °F 30.02 in Calm   1.0 mph 70 % 0.00 in 0 W/m2
00:28 58.4 °F 48.7 °F 30.02 in Calm   1.0 mph 70 % 0.00 in 0 W/m2
00:33 58.5 °F 48.7 °F 30.02 in Calm   1.0 mph 70 % 0.00 in 0 W/m2
00:38 58.5 °F 48.7 °F 30.02 in Calm   1.0 mph 70 % 0.00 in 0 W/m2
00:43 58.5 °F 49.1 °F 30.02 in Calm   1.0 mph 71 % 0.00 in 0 W/m2
00:48 58.5 °F 49.5 °F 30.02 in Calm   1.0 mph 72 % 0.00 in 0 W/m2
00:53 58.5 °F 49.5 °F 30.02 in Calm   1.0 mph 72 % 0.00 in 0 W/m2
00:58 58.5 °F 49.9 °F 30.02 in Calm   3.0 mph 73 % 0.00 in 0 W/m2
01:03 58.5 °F 50.2 °F 30.02 in Calm   3.0 mph 74 % 0.00 in 0 W/m2
01:08 58.6 °F 50.3 °F 30.02 in Calm   2.0 mph 74 % 0.00 in 0 W/m2
01:13 58.7 °F 50.4 °F 30.02 in Calm   2.0 mph 74 % 0.00 in 0 W/m2
01:18 58.8 °F 50.9 °F 30.02 in SSE 2.0 mph 4.0 mph 75 % 0.00 in 0 W/m2
01:23 59.0 °F 50.7 °F 30.02 in Calm   4.0 mph 74 % 0.00 in 0 W/m2
01:28 59.2 °F 50.9 °F 30.02 in Calm   3.0 mph 74 % 0.00 in 0 W/m2
01:33 59.2 °F 50.9 °F 30.02 in ESE 1.0 mph 3.0 mph 74 % 0.00 in 0 W/m2
01:38 59.3 °F 51.0 °F 30.02 in Calm   3.0 mph 74 % 0.00 in 0 W/m2
01:43 59.3 °F 51.0 °F 30.02 in Calm   4.0 mph 74 % 0.00 in 0 W/m2
01:48 59.2 °F 50.5 °F 30.02 in Calm   4.0 mph 73 % 0.00 in 0 W/m2
01:53 59.2 °F 50.5 °F 30.02 in Calm   3.0 mph 73 % 0.00 in 0 W/m2
01:56 59.2 °F 50.5 °F 30.02 in Calm   3.0 mph 73 % 0.00 in 0 W/m2
02:01 59.1 °F 50.5 °F 30.02 in Calm   3.0 mph 73 % 0.00 in 0 W/m2
02:06 59.1 °F 50.5 °F 30.02 in Calm   4.0 mph 73 % 0.00 in 0 W/m2
02:11 59.0 °F 50.4 °F 30.02 in Calm   4.0 mph 73 % 0.00 in 0 W/m2
02:16 59.0 °F 50.4 °F 30.02 in Calm   3.0 mph 73 % 0.00 in 0 W/m2
02:21 58.9 °F 50.3 °F 30.02 in Calm   3.0 mph 73 % 0.00 in 0 W/m2
02:26 58.7 °F 50.1 °F 30.01 in Calm   3.0 mph 73 % 0.00 in 0 W/m2
02:31 58.7 °F 50.1 °F 30.02 in Calm   3.0 mph 73 % 0.00 in 0 W/m2
02:36 58.6 °F 50.0 °F 30.01 in Calm   3.0 mph 73 % 0.00 in 0 W/m2
02:41 58.5 °F 50.2 °F 30.01 in SSW 4.0 mph 6.0 mph 74 % 0.00 in 0 W/m2
02:46 58.6 °F 50.0 °F 30.01 in SE 1.0 mph 6.0 mph 73 % 0.00 in 0 W/m2
02:51 58.6 °F 50.3 °F 30.01 in Calm   5.0 mph 74 % 0.00 in 0 W/m2
02:56 58.6 °F 50.0 °F 30.01 in Calm   5.0 mph 73 % 0.00 in 0 W/m2
03:01 58.6 °F 50.0 °F 30.01 in South 3.0 mph 5.0 mph 73 % 0.00 in 0 W/m2
03:06 58.6 °F 50.0 °F 30.01 in Calm   5.0 mph 73 % 0.00 in 0 W/m2
03:11 58.6 °F 50.0 °F 30.01 in Calm   5.0 mph 73 % 0.00 in 0 W/m2
03:16 58.6 °F 50.0 °F 30.01 in Calm   5.0 mph 73 % 0.00 in 0 W/m2
03:21 58.5 °F 49.9 °F 30.01 in Calm   5.0 mph 73 % 0.00 in 0 W/m2
03:26 58.4 °F 49.8 °F 30.01 in Calm   2.0 mph 73 % 0.00 in 0 W/m2
03:31 58.3 °F 50.0 °F 30.01 in Calm   1.0 mph 74 % 0.00 in 0 W/m2
03:36 58.2 °F 50.0 °F 30.01 in Calm   3.0 mph 74 % 0.00 in 0 W/m2
03:41 58.2 °F 50.0 °F 30.01 in Calm   3.0 mph 74 % 0.00 in 0 W/m2
03:46 58.1 °F 49.9 °F 30.01 in Calm   4.0 mph 74 % 0.00 in 0 W/m2
03:52 58.1 °F 49.9 °F 30.01 in Calm   4.0 mph 74 % 0.00 in 0 W/m2
03:57 58.2 °F 49.6 °F 30.01 in SSE 1.0 mph 5.0 mph 73 % 0.00 in 0 W/m2
04:02 58.1 °F 49.5 °F 30.00 in Calm   5.0 mph 73 % 0.00 in 0 W/m2
04:07 58.1 °F 49.5 °F 30.00 in Calm   3.0 mph 73 % 0.00 in 0 W/m2
04:12 58.1 °F 49.5 °F 30.00 in Calm   3.0 mph 73 % 0.00 in 0 W/m2
04:17 58.0 °F 49.4 °F 30.00 in Calm   2.0 mph 73 % 0.00 in 0 W/m2
04:22 58.0 °F 49.4 °F 30.00 in Calm   2.0 mph 73 % 0.00 in 0 W/m2
04:27 58.0 °F 49.4 °F 30.00 in Calm   2.0 mph 73 % 0.00 in 0 W/m2
04:32 58.1 °F 49.5 °F 30.00 in Calm   2.0 mph 73 % 0.00 in 0 W/m2
04:37 58.1 °F 49.9 °F 30.00 in Calm   2.0 mph 74 % 0.00 in 0 W/m2
04:42 58.0 °F 49.4 °F 30.00 in Calm   1.0 mph 73 % 0.00 in 0 W/m2
04:47 58.1 °F 49.5 °F 30.00 in Calm   2.0 mph 73 % 0.00 in 0 W/m2
04:52 58.2 °F 49.6 °F 30.00 in SSW 3.0 mph 3.0 mph 73 % 0.00 in 0 W/m2
04:57 58.3 °F 49.3 °F 29.99 in Calm   3.0 mph 72 % 0.00 in 0 W/m2
05:02 58.5 °F 49.1 °F 30.00 in Calm   2.0 mph 71 % 0.00 in 0 W/m2
05:07 58.6 °F 49.2 °F 30.00 in Calm   3.0 mph 71 % 0.00 in 0 W/m2
05:12 58.7 °F 48.9 °F 30.00 in Calm   3.0 mph 70 % 0.00 in 0 W/m2
05:17 58.8 °F 49.0 °F 30.00 in SSW 2.0 mph 3.0 mph 70 % 0.00 in 0 W/m2
05:22 58.9 °F 49.1 °F 30.00 in Calm   3.0 mph 70 % 0.00 in 0 W/m2
05:27 58.9 °F 49.1 °F 30.00 in SE 1.0 mph 3.0 mph 70 % 0.00 in 0 W/m2
05:32 58.9 °F 49.1 °F 30.00 in Calm   4.0 mph 70 % 0.00 in 0 W/m2
05:37 58.7 °F 48.9 °F 30.00 in Calm   4.0 mph 70 % 0.00 in 0 W/m2
05:42 58.7 °F 48.9 °F 30.00 in Calm   4.0 mph 70 % 0.00 in 0 W/m2
05:47 58.6 °F 49.2 °F 30.00 in Calm   3.0 mph 71 % 0.00 in 0 W/m2
05:52 58.7 °F 49.3 °F 30.00 in Calm   3.0 mph 71 % 0.00 in 0 W/m2
05:57 58.7 °F 49.3 °F 30.00 in Calm   3.0 mph 71 % 0.00 in 0 W/m2
06:02 58.7 °F 49.3 °F 30.00 in Calm   3.0 mph 71 % 0.00 in 0 W/m2
06:07 58.7 °F 49.3 °F 30.00 in Calm   3.0 mph 71 % 0.00 in 0 W/m2
06:12 58.7 °F 49.3 °F 30.00 in Calm   3.0 mph 71 % 0.00 in 0 W/m2
06:17 58.6 °F 49.2 °F 30.00 in South 1.0 mph 2.0 mph 71 % 0.00 in 7 W/m2
06:22 58.6 °F 49.2 °F 30.00 in Calm   3.0 mph 71 % 0.00 in 11 W/m2
06:23 58.6 °F 49.2 °F 30.00 in Calm   3.0 mph 71 % 0.00 in 11 W/m2
06:28 58.7 °F 49.3 °F 30.00 in Calm   3.0 mph 71 % 0.00 in 14 W/m2
06:33 58.9 °F 49.5 °F 30.00 in Calm   2.0 mph 71 % 0.00 in 16 W/m2
06:38 59.1 °F 49.7 °F 30.01 in Calm   3.0 mph 71 % 0.00 in 18 W/m2
06:40 59.1 °F 49.7 °F 30.01 in SSE 1.0 mph 3.0 mph 71 % 0.00 in 18 W/m2
06:45 59.3 °F 49.5 °F 30.01 in SE 2.0 mph 3.0 mph 70 % 0.00 in 19 W/m2
06:50 59.5 °F 49.7 °F 30.01 in Calm   7.0 mph 70 % 0.00 in 25 W/m2
06:55 59.8 °F 49.6 °F 30.01 in South 2.0 mph 7.0 mph 69 % 0.00 in 30 W/m2
07:00 60.1 °F 49.9 °F 30.01 in Calm   5.0 mph 69 % 0.00 in 35 W/m2
07:05 60.4 °F 50.2 °F 30.01 in SW 1.0 mph 4.0 mph 69 % 0.00 in 40 W/m2
07:10 60.7 °F 50.1 °F 30.01 in Calm   4.0 mph 68 % 0.00 in 39 W/m2
07:15 61.0 °F 50.4 °F 30.01 in Calm   4.0 mph 68 % 0.00 in 37 W/m2
07:20 61.3 °F 50.6 °F 30.02 in Calm   4.0 mph 68 % 0.00 in 26 W/m2
07:25 61.4 °F 50.3 °F 30.02 in Calm   4.0 mph 67 % 0.00 in 28 W/m2
07:30 61.4 °F 50.3 °F 30.02 in SSE 1.0 mph 4.0 mph 67 % 0.00 in 30 W/m2
07:35 61.4 °F 50.3 °F 30.02 in SE 2.0 mph 4.0 mph 67 % 0.00 in 40 W/m2
07:40 61.5 °F 50.8 °F 30.01 in Calm   5.0 mph 68 % 0.00 in 47 W/m2
SE Aurora, Colorado Weather
Compliments of Weather Underground - 2 mb
top